Location: Azul
(36.7830°S, 59.8500°W)
Time: 01:22:54
(UTC-03:00)

UWE-3 - Pass Details

Date: 31 October 2021
Orbit: 584 x 681 km, 97.7° (Epoch: 04 December)

Event Time Altitude Azimuth Distance (km) Brightness Sun altitude
Exits shadow 04:52:30 13° 332° (NNW) 1,831 ? -12.3°
Maximum altitude 04:55:46 29° 275° (W) 1,199 ? -11.7°
Drops below altitude 10° 04:59:43 10° 215° (SW) 2,087 ? -11.0°
Sets 05:02:15 0° 204° (SSW) 3,024 ? -10.6°
